Miscellaneous Local Product
Issued by NWS Hastings, NE

Home | Current Version | Previous Version | Graphics & Text | Print | Product List | Glossary On
Versions: 1 2 3 4 5 6 7 8 9 10 11 12 13 14 15 16 17 18 19 20 21 22 23 24 25 26 27 28 29 30 31 32 33 34 35 36 37 38 39 40 41 42 43 44 45 46 47 48 49 50
000
AXUS43 KGID 292002
MISGRI

GID CWA HOURLY WEATHER ROUNDUP
NATIONAL WEATHER SERVICE HASTINGS NE
300 PM CDT WED OCT 29 2014

NOTE: "FAIR" INDICATES FEW OR NO CLOUDS BELOW 12,000 FEET WITH NO
SIGNIFICANT WEATHER AND/OR OBSTRUCTIONS TO VISIBILITY.

...SOUTH CENTRAL NEBRASKA...

CITY           SKY/WX    TMP DP  RH WIND       PRES   REMARKS
GRAND ISLAND   SUNNY     60  30  32 S14       30.09F
HASTINGS       SUNNY     60  28  29 S8        30.08F
KEARNEY        SUNNY     63  28  27 S17       30.07F
ORD            SUNNY     59  27  29 S16G22    30.05F
YORK           SUNNY     57  30  35 S12       30.11F
AURORA         SUNNY     58  26  29 S13G18    30.11F
LEXINGTON      SUNNY     64  30  28 S10       30.05F
HOLDREGE       SUNNY     62  29  29 S14G20    30.06F
HEBRON         SUNNY     61  26  26 S10G16    30.12F

...NEBRASKA PANHANDLE...

CITY           SKY/WX    TMP DP  RH WIND       PRES   REMARKS
CHADRON        MOSUNNY   66  27  23 VRB6      29.96F
ALLIANCE       SUNNY     68  20  16 W21       29.98F
SCOTTSBLUFF    SUNNY     70  21  15 NW16G25   30.00F
SIDNEY         SUNNY     68  23  18 SW21G26   30.04F

...WESTERN AND NORTH CENTRAL NEBRASKA...

CITY           SKY/WX    TMP DP  RH WIND       PRES   REMARKS
VALENTINE      SUNNY     65  21  18 SW12      29.97F
AINSWORTH      SUNNY     63  24  22 S12       29.98F
ONEILL         SUNNY     59  29  31 S14G21    30.04F
BROKEN BOW     SUNNY     64  29  26 S16G24    30.03F
IMPERIAL       SUNNY     70  21  15 SW9       30.03F
NORTH PLATTE   SUNNY     69  19  15 W10       30.01F
MCCOOK         SUNNY     68  29  23 VRB7      30.05F

...EASTERN NEBRASKA...

CITY           SKY/WX    TMP DP  RH WIND       PRES   REMARKS
NORFOLK        SUNNY     56  30  37 S12       30.09F
SO SIOUX CITY  SUNNY     54  30  40 SW8       30.13F
TEKAMAH        SUNNY     55  30  38 S7        30.14F
COLUMBUS       SUNNY     55  28  35 S8        30.12F
ALBION         SUNNY     56  29  35 S13G18    30.08F
OMAHA EPPLEY   SUNNY     54  30  40 CALM      30.16F
OFFUTT AFB     SUNNY     55  32  42 VRB2      30.15F
MILLARD        SUNNY     54  31  41 CALM      30.15F
LINCOLN        SUNNY     57  32  38 SE5       30.15F
NEBRASKA CITY  SUNNY     55  27  33 CALM      30.16F
BEATRICE       SUNNY     58  32  38 SE9       30.14F
FALLS CITY     SUNNY     57  32  38 CALM      30.16F

...NORTHERN KANSAS...

CITY           SKY/WX    TMP DP  RH WIND       PRES   REMARKS
GOODLAND       SUNNY     70  21  15 W5        30.07F
HILL CITY      SUNNY     72  39  30 S12       30.06F
NORTON         CLEAR     70  27  19 S9        30.04F
PHILLIPSBURG   SUNNY     72  36  26 S9        30.07F
SMITH CENTER   SUNNY     64  34  32 SE10G17   30.09F
BELOIT         SUNNY     66  32  28 SE9G18    30.09F
HAYS           SUNNY     72  39  30 SW15G21   30.08F
RUSSELL        SUNNY     70  39  32 SW16      30.08F
CONCORDIA      SUNNY     64  32  30 SE13G21   30.12F
SALINA         SUNNY     69  35  28 S12       30.12F
TOPEKA         SUNNY     62  31  31 CALM      30.18F



USA.gov is the U.S. government's official web portal to all federal, state and local government web resources and services.